Atmospheric History
12/06/2017 18:38  to  12/7/2017 18:38
Change End Date:
To complete the export process:
1) Select all of the data below
2) Copy the data to the clipboard
3) Open a word processor such as Notepad
4) Paste the data into the word processor
5) Save the file

Date/Time (MST), AirTemp, RH, Dewpoint ,AvgWindSpeed, GustWindSpeed, WindDirection, PrecipType, PrecipIntensity, PrecipAccumulation, PrecipRate
12/07/2017 18:32, 38, 35, 13 ,10, 13, SW, None, None, ,  
12/07/2017 18:27, 39, 34, 13 ,10, 12, SW, None, None, ,  
12/07/2017 18:22, 39, 34, 14 ,9, 14, SW, None, None, ,  
12/07/2017 18:12, 38, 35, 14 ,9, 11, SW, None, None, ,  
12/07/2017 18:12, 39, 35, 14 ,8, 11, SW, None, None, ,  
12/07/2017 18:02, 38, 35, 13 ,7, 9, SW, None, None, ,  
12/07/2017 17:57, 38, 35, 13 ,6, 9, SW, None, None, ,  
12/07/2017 17:52, 38, 35, 13 ,6, 11, SW, None, None, ,  
12/07/2017 17:43, 38, 35, 13 ,9, 14, SW, None, None, ,  
12/07/2017 17:42, 37, 35, 13 ,10, 14, SW, None, None, ,  
12/07/2017 17:32, 37, 36, 13 ,9, 13, SW, None, None, ,  
12/07/2017 17:27, 37, 36, 13 ,9, 14, SW, None, None, ,  
12/07/2017 17:22, 37, 36, 13 ,12, 14, SW, None, None, ,  
12/07/2017 17:12, 37, 36, 13 ,11, 12, SW, None, None, ,  
12/07/2017 17:12, 37, 36, 13 ,11, 12, SW, None, None, ,  
12/07/2017 17:01, 36, 37, 12 ,9, 12, SW, None, None, ,  
12/07/2017 16:57, 36, 37, 12 ,10, 12, SW, None, None, ,  
12/07/2017 16:51, 36, 36, 12 ,9, 11, SW, None, None, ,  
12/07/2017 16:42, 37, 35, 12 ,9, 10, SW, None, None, ,  
12/07/2017 16:41, 37, 35, 12 ,9, 10, SW, None, None, ,  
12/07/2017 16:31, 37, 34, 12 ,8, 11, SW, None, None, ,  
12/07/2017 16:27, 38, 33, 12 ,7, 12, SW, None, None, ,  
12/07/2017 16:21, 39, 33, 12 ,9, 17, SW, None, None, ,  
12/07/2017 16:12, 40, 32, 12 ,16, 17, W, None, None, ,  
12/07/2017 16:11, 40, 32, 12 ,15, 17, W, None, None, ,  
12/07/2017 16:01, 40, 32, 13 ,7, 11, W, None, None, ,  
12/07/2017 15:56, 41, 32, 13 ,9, 11, W, None, None, ,  
12/07/2017 15:51, 41, 32, 13 ,7, 12, W, None, None, ,  
12/07/2017 15:41, 40, 32, 13 ,12, 15, W, None, None, ,  
12/07/2017 15:41, 40, 32, 13 ,12, 15, W, None, None, ,  
12/07/2017 15:31, 41, 31, 13 ,12, 16, W, None, None, ,  
12/07/2017 15:26, 41, 31, 13 ,11, 16, W, None, None, ,  
12/07/2017 15:21, 40, 33, 14 ,11, 14, SW, None, None, ,  
12/07/2017 15:11, 40, 33, 13 ,7, 13, W, None, None, ,  
12/07/2017 15:11, 40, 33, 13 ,7, 13, W, None, None, ,  
12/07/2017 15:01, 40, 33, 13 ,7, 15, NW, None, None, ,  
12/07/2017 14:56, 40, 33, 13 ,11, 15, W, None, None, ,  
12/07/2017 14:51, 40, 33, 13 ,9, 16, W, None, None, ,  
12/07/2017 14:41, 40, 31, 13 ,12, 16, SW, None, None, ,  
12/07/2017 14:41, 40, 31, 13 ,12, 16, SW, None, None, ,  
12/07/2017 14:31, 40, 32, 13 ,10, 18, W, None, None, ,  
12/07/2017 14:26, 40, 33, 14 ,9, 14, SW, None, None, ,  
12/07/2017 14:21, 40, 34, 14 ,7, 13, W, None, None, ,  
12/07/2017 14:11, 39, 35, 14 ,11, 15, W, None, None, ,  
12/07/2017 14:10, 39, 35, 14 ,12, 16, W, None, None, ,  
12/07/2017 14:00, 39, 34, 13 ,11, 14, SW, None, None, ,  
12/07/2017 13:56, 39, 34, 13 ,10, 18, W, None, None, ,  
12/07/2017 13:50, 39, 34, 14 ,11, 18, SW, None, None, ,  
12/07/2017 13:41, 39, 35, 14 ,11, 17, SW, None, None, ,  
12/07/2017 13:40, 39, 35, 14 ,9, 14, SW, None, None, ,  
12/07/2017 13:30, 38, 35, 14 ,8, 12, W, None, None, ,  
12/07/2017 13:26, 38, 35, 14 ,9, 16, W, None, None, ,  
12/07/2017 13:20, 39, 35, 13 ,11, 16, W, None, None, ,  
12/07/2017 13:11, 38, 35, 13 ,9, 12, W, None, None, ,  
12/07/2017 13:10, 38, 35, 13 ,7, 12, W, None, None, ,  
12/07/2017 13:00, 39, 34, 13 ,10, 19, SW, None, None, ,  
12/07/2017 12:57, 39, 34, 13 ,11, 20, SW, None, None, ,  
12/07/2017 12:50, 39, 33, 13 ,17, 20, SW, None, None, ,  
12/07/2017 12:42, 39, 33, 13 ,16, 25, SW, None, None, ,  
12/07/2017 12:40, 39, 33, 13 ,18, 24, SW, None, None, ,  
12/07/2017 12:30, 39, 35, 13 ,15, 21, SW, None, None, ,  
12/07/2017 12:27, 38, 35, 13 ,18, 21, SW, None, None, ,  
12/07/2017 12:20, 38, 35, 13 ,15, 19, SW, None, None, ,  
12/07/2017 12:13, 38, 35, 13 ,13, 18, SW, None, None, ,  
12/07/2017 12:10, 38, 35, 13 ,14, 18, SW, None, None, ,  
12/07/2017 12:00, 38, 35, 13 ,14, 18, SW, None, None, ,  
12/07/2017 11:57, 38, 35, 13 ,14, 19, SW, None, None, ,  
12/07/2017 11:50, 38, 35, 13 ,14, 19, SW, None, None, ,  
12/07/2017 11:42, 37, 36, 13 ,16, 21, SW, None, None, ,  
12/07/2017 11:39, 37, 36, 13 ,13, 21, SW, None, None, ,  
12/07/2017 11:29, 38, 35, 13 ,20, 24, SW, None, None, ,  
12/07/2017 11:27, 37, 36, 13 ,18, 25, SW, None, None, ,  
12/07/2017 11:19, 37, 36, 13 ,19, 25, SW, None, None, ,  
12/07/2017 11:12, 37, 36, 13 ,17, 22, SW, None, None, ,  
12/07/2017 11:09, 37, 36, 13 ,18, 23, SW, None, None, ,  
12/07/2017 10:59, 37, 35, 13 ,17, 27, SW, None, None, ,  
12/07/2017 10:56, 37, 35, 13 ,18, 27, SW, None, None, ,  
12/07/2017 10:49, 37, 36, 13 ,17, 22, SW, None, None, ,  
12/07/2017 10:42, 37, 37, 13 ,16, 20, SW, None, None, ,  
12/07/2017 10:39, 36, 38, 13 ,15, 20, SW, None, None, ,  
12/07/2017 10:29, 36, 38, 13 ,15, 21, SW, None, None, ,  
12/07/2017 10:27, 36, 39, 13 ,15, 21, SW, None, None, ,  
12/07/2017 10:19, 35, 39, 13 ,16, 19, SW, None, None, ,  
12/07/2017 10:12, 35, 40, 13 ,14, 22, SW, None, None, ,  
12/07/2017 10:09, 35, 39, 13 ,16, 22, SW, None, None, ,  
12/07/2017 09:59, 35, 39, 13 ,16, 22, SW, None, None, ,  
12/07/2017 09:57, 35, 39, 13 ,17, 22, SW, None, None, ,  
12/07/2017 09:49, 35, 38, 13 ,17, 23, SW, None, None, ,  
12/07/2017 09:42, 35, 38, 13 ,17, 23, SW, None, None, ,  
12/07/2017 09:39, 35, 38, 13 ,15, 22, SW, None, None, ,  
12/07/2017 09:29, 35, 38, 13 ,20, 26, SW, None, None, ,  
12/07/2017 09:27, 35, 39, 13 ,17, 21, SW, None, None, ,  
12/07/2017 09:19, 34, 40, 13 ,17, 24, SW, None, None, ,  
12/07/2017 09:12, 34, 40, 13 ,18, 23, SW, None, None, ,  
12/07/2017 09:09, 34, 40, 12 ,17, 22, SW, None, None, ,  
12/07/2017 08:59, 34, 40, 12 ,17, 23, SW, None, None, ,  
12/07/2017 08:57, 34, 40, 12 ,17, 23, SW, None, None, ,  
12/07/2017 08:49, 34, 39, 12 ,18, 24, SW, None, None, ,  
12/07/2017 08:42, 34, 41, 13 ,19, 26, SW, None, None, ,  
12/07/2017 08:38, 34, 41, 13 ,21, 26, SW, None, None, ,  
12/07/2017 08:28, 33, 41, 13 ,19, 24, SW, None, None, ,  
12/07/2017 08:27, 33, 41, 13 ,20, 24, SW, None, None, ,  
12/07/2017 08:18, 34, 41, 12 ,16, 23, SW, None, None, ,  
12/07/2017 08:12, 33, 42, 12 ,16, 22, SW, None, None, ,  
12/07/2017 08:08, 33, 42, 12 ,18, 24, SW, None, None, ,  
12/07/2017 07:58, 33, 40, 12 ,20, 24, SW, None, None, ,  
12/07/2017 07:57, 33, 40, 12 ,20, 24, SW, None, None, ,  
12/07/2017 07:48, 33, 40, 12 ,20, 26, S, None, None, ,  
12/07/2017 07:42, 33, 40, 12 ,19, 23, SW, None, None, ,  
12/07/2017 07:38, 33, 41, 12 ,18, 23, SW, None, None, ,  
12/07/2017 07:28, 33, 39, 11 ,17, 23, SW, None, None, ,  
12/07/2017 07:27, 34, 39, 12 ,17, 22, SW, None, None, ,  
12/07/2017 07:18, 34, 38, 11 ,15, 19, SW, None, None, ,  
12/07/2017 07:13, 34, 38, 11 ,13, 22, SW, None, None, ,  
12/07/2017 07:08, 34, 38, 12 ,18, 22, SW, None, None, ,  
12/07/2017 06:58, 34, 39, 12 ,12, 21, SW, None, None, ,  
12/07/2017 06:58, 34, 39, 12 ,12, 21, SW, None, None, ,  
12/07/2017 06:48, 33, 40, 12 ,12, 18, SW, None, None, ,  
12/07/2017 06:42, 33, 39, 11 ,12, 22, SW, None, None, ,  
12/07/2017 06:38, 34, 39, 12 ,18, 24, SW, None, None, ,  
12/07/2017 06:28, 33, 40, 12 ,14, 23, SW, None, None, ,  
12/07/2017 06:27, 33, 40, 12 ,15, 23, SW, None, None, ,  
12/07/2017 06:18, 32, 40, 11 ,14, 19, SW, None, None, ,  
12/07/2017 06:13, 33, 40, 11 ,14, 21, SW, None, None, ,  
12/07/2017 06:08, 33, 40, 12 ,16, 22, SW, None, None, ,  
12/07/2017 05:57, 33, 41, 12 ,14, 21, SW, None, None, ,  
12/07/2017 05:57, 33, 41, 12 ,14, 21, SW, None, None, ,  
12/07/2017 05:47, 32, 41, 11 ,15, 22, SW, None, None, ,  
12/07/2017 05:42, 33, 41, 12 ,15, 22, SW, None, None, ,  
12/07/2017 05:37, 33, 41, 12 ,14, 24, SW, None, None, ,  
12/07/2017 05:28, 33, 41, 12 ,16, 25, SW, None, None, ,  
12/07/2017 05:27, 33, 41, 12 ,15, 26, SW, None, None, ,  
12/07/2017 05:17, 33, 41, 12 ,21, 26, SW, None, None, ,  
12/07/2017 05:13, 33, 40, 12 ,16, 22, SW, None, None, ,  
12/07/2017 05:07, 33, 42, 12 ,19, 22, SW, None, None, ,  
12/07/2017 04:57, 32, 42, 12 ,17, 24, SW, None, None, ,  
12/07/2017 04:57, 32, 42, 12 ,17, 24, SW, None, None, ,  
12/07/2017 04:47, 32, 42, 11 ,18, 24, SW, None, None, ,  
12/07/2017 04:42, 32, 40, 11 ,17, 24, SW, None, None, ,  
12/07/2017 04:37, 33, 38, 11 ,19, 33, SW, None, None, ,  
12/07/2017 04:27, 35, 36, 11 ,27, 32, SW, None, None, ,  
12/07/2017 04:27, 35, 36, 11 ,26, 32, SW, None, None, ,  
12/07/2017 04:17, 33, 40, 12 ,20, 27, SW, None, None, ,  
12/07/2017 04:12, 33, 40, 11 ,19, 25, S, None, None, ,  
12/07/2017 04:07, 33, 40, 11 ,18, 25, SW, None, None, ,  
12/07/2017 03:57, 33, 40, 11 ,17, 24, SW, None, None, ,  
12/07/2017 03:57, 33, 40, 11 ,17, 24, SW, None, None, ,  
12/07/2017 03:47, 33, 41, 12 ,16, 24, SW, None, None, ,  
12/07/2017 03:42, 32, 42, 12 ,17, 22, SW, None, None, ,  
12/07/2017 03:37, 32, 42, 12 ,15, 22, SW, None, None, ,  
12/07/2017 03:28, 32, 41, 11 ,16, 23, SW, None, None, ,  
12/07/2017 03:27, 32, 41, 11 ,17, 23, SW, None, None, ,  
12/07/2017 03:17, 32, 42, 12 ,16, 19, SW, None, None, ,  
12/07/2017 03:13, 31, 42, 11 ,15, 20, SW, None, None, ,  
12/07/2017 03:06, 32, 41, 11 ,16, 20, SW, None, None, ,  
12/07/2017 02:57, 32, 41, 11 ,15, 19, SW, None, None, ,  
12/07/2017 02:56, 32, 41, 11 ,14, 19, SW, None, None, ,  
12/07/2017 02:46, 32, 41, 11 ,14, 19, SW, None, None, ,  
12/07/2017 02:42, 32, 41, 11 ,16, 21, SW, None, None, ,  
12/07/2017 02:36, 32, 41, 11 ,16, 21, SW, None, None, ,  
12/07/2017 02:27, 32, 40, 11 ,14, 21, SW, None, None, ,  
12/07/2017 02:26, 32, 40, 11 ,16, 21, SW, None, None, ,  
12/07/2017 02:16, 32, 40, 11 ,16, 23, SW, None, None, ,  
12/07/2017 02:13, 32, 40, 11 ,16, 23, SW, None, None, ,  
12/07/2017 02:06, 33, 38, 11 ,19, 28, SW, None, None, ,  
12/07/2017 01:57, 32, 41, 11 ,15, 20, SW, None, None, ,  
12/07/2017 01:56, 32, 41, 11 ,15, 20, SW, None, None, ,  
12/07/2017 01:46, 32, 41, 11 ,14, 19, SW, None, None, ,  
12/07/2017 01:43, 32, 41, 11 ,13, 19, SW, None, None, ,  
12/07/2017 01:36, 32, 41, 11 ,14, 19, SW, None, None, ,  
12/07/2017 01:27, 32, 41, 11 ,16, 19, SW, None, None, ,  
12/07/2017 01:26, 32, 41, 11 ,16, 19, SW, None, None, ,  
12/07/2017 01:16, 32, 41, 11 ,16, 21, SW, None, None, ,  
12/07/2017 01:13, 32, 41, 11 ,17, 21, SW, None, None, ,  
12/07/2017 01:06, 32, 42, 12 ,15, 19, SW, None, None, ,  
12/07/2017 00:57, 31, 43, 12 ,13, 17, SW, None, None, ,  
12/07/2017 00:56, 31, 43, 12 ,12, 17, SW, None, None, ,  
12/07/2017 00:46, 31, 44, 12 ,13, 16, SW, None, None, ,  
12/07/2017 00:43, 30, 44, 11 ,11, 13, SW, None, None, ,  
12/07/2017 00:36, 31, 44, 11 ,10, 17, SW, None, None, ,  
12/07/2017 00:27, 31, 43, 11 ,15, 17, SW, None, None, ,  
12/07/2017 00:25, 31, 43, 11 ,11, 17, SW, None, None, ,  
12/07/2017 00:15, 31, 42, 11 ,14, 19, S, None, None, ,  
12/07/2017 00:12, 32, 42, 11 ,15, 22, SW, None, None, ,  
12/07/2017 00:05, 31, 42, 11 ,15, 22, SW, None, None, ,  
12/06/2017 23:57, 31, 42, 11 ,12, 19, SW, None, None, ,  
12/06/2017 23:55, 31, 42, 11 ,14, 19, SW, None, None, ,  
12/06/2017 23:45, 31, 42, 11 ,14, 21, SW, None, None, ,  
12/06/2017 23:43, 31, 42, 11 ,15, 21, SW, None, None, ,  
12/06/2017 23:35, 31, 42, 11 ,13, 17, SW, None, None, ,  
12/06/2017 23:27, 31, 42, 11 ,14, 17, SW, None, None, ,  
12/06/2017 23:25, 31, 42, 11 ,13, 17, SW, None, None, ,  
12/06/2017 23:15, 32, 42, 12 ,14, 19, SW, None, None, ,  
12/06/2017 23:12, 31, 43, 12 ,12, 18, SW, None, None, ,  
12/06/2017 23:05, 31, 44, 12 ,12, 17, SW, None, None, ,  
12/06/2017 22:57, 30, 44, 11 ,12, 14, W, None, None, ,  
12/06/2017 22:55, 31, 44, 12 ,8, 17, W, None, None, ,  
12/06/2017 22:45, 31, 44, 12 ,9, 13, SW, None, None, ,  
12/06/2017 22:42, 31, 44, 12 ,11, 12, SW, None, None, ,  
12/06/2017 22:35, 30, 44, 11 ,11, 15, SW, None, None, ,  
12/06/2017 22:28, 31, 44, 11 ,12, 17, SW, None, None, ,  
12/06/2017 22:25, 31, 44, 12 ,12, 17, SW, None, None, ,  
12/06/2017 22:15, 31, 44, 12 ,12, 16, SW, None, None, ,  
12/06/2017 22:13, 31, 44, 12 ,13, 16, SW, None, None, ,  
12/06/2017 22:04, 31, 44, 12 ,11, 14, SW, None, None, ,  
12/06/2017 21:57, 31, 44, 12 ,11, 15, SW, None, None, ,  
12/06/2017 21:54, 31, 44, 12 ,9, 15, SW, None, None, ,  
12/06/2017 21:44, 31, 44, 12 ,12, 16, SW, None, None, ,  
12/06/2017 21:42, 31, 44, 12 ,11, 16, SW, None, None, ,  
12/06/2017 21:34, 31, 44, 12 ,11, 17, SW, None, None, ,  
12/06/2017 21:27, 31, 44, 12 ,12, 17, SW, None, None, ,  
12/06/2017 21:24, 31, 44, 12 ,11, 18, SW, None, None, ,  
12/06/2017 21:14, 31, 44, 12 ,12, 17, SW, None, None, ,  
12/06/2017 21:12, 31, 44, 12 ,13, 17, SW, None, None, ,  
12/06/2017 21:04, 31, 44, 12 ,12, 17, SW, None, None, ,  
12/06/2017 20:57, 31, 44, 12 ,11, 21, SW, None, None, ,  
12/06/2017 20:54, 31, 44, 12 ,11, 21, SW, None, None, ,  
12/06/2017 20:44, 31, 44, 12 ,11, 15, SW, None, None, ,  
12/06/2017 20:43, 31, 44, 12 ,11, 15, SW, None, None, ,  
12/06/2017 20:34, 31, 44, 12 ,12, 17, SW, None, None, ,  
12/06/2017 20:27, 31, 45, 12 ,13, 18, SW, None, None, ,  
12/06/2017 20:24, 30, 45, 12 ,12, 19, SW, None, None, ,  
12/06/2017 20:14, 30, 45, 12 ,12, 17, SW, None, None, ,  
12/06/2017 20:12, 30, 45, 12 ,14, 17, SW, None, None, ,  
12/06/2017 20:04, 30, 46, 12 ,10, 18, SW, None, None, ,  
12/06/2017 19:57, 30, 46, 12 ,12, 18, SW, None, None, ,  
12/06/2017 19:54, 30, 46, 12 ,13, 18, SW, None, None, ,  
12/06/2017 19:43, 30, 46, 12 ,13, 19, SW, None, None, ,  
12/06/2017 19:42, 30, 46, 12 ,15, 19, SW, None, None, ,  
12/06/2017 19:33, 30, 46, 12 ,11, 18, SW, None, None, ,  
12/06/2017 19:28, 30, 46, 12 ,14, 18, SW, None, None, ,  
12/06/2017 19:23, 30, 46, 12 ,14, 18, SW, None, None, ,  
12/06/2017 19:13, 30, 47, 12 ,11, 16, SW, None, None, ,  
12/06/2017 19:12, 30, 47, 12 ,10, 16, SW, None, None, ,  
12/06/2017 19:03, 29, 47, 12 ,9, 12, SW, None, None, ,  
12/06/2017 18:57, 29, 47, 12 ,9, 12, SW, None, None, ,  
12/06/2017 18:53, 29, 47, 12 ,9, 13, SW, None, None, ,  
12/06/2017 18:43, 30, 46, 12 ,11, 13, SW, None, None, ,  
12/06/2017 18:42, 30, 46, 12 ,10, 13, SW, None, None, ,  
Change End Date:

Copyright © 1998-2015 Vaisala, Inc.
All Rights Reserved
Send comments about the data to:
SCAN Web ® is a registered trademark of Vaisala, Inc.
SCAN Web Version 6.0